Annette Island, AK

5:50 PM AKDT on May 24, 2017 (GMT -0800)
Annette Island

Weather History for PANT - July, 2013

Change the Weather History Date:

Wednesday, July 24, 2013

  Actual Average Record
Temperature  
Mean Temperature 58 °F 60 °F  
Max Temperature 60 °F 65 °F 80 °F (1971)
Min Temperature 56 °F 54 °F 47 °F (1999)
Degree Days  
Heating Degree Days 7    
Month to date heating degree days 136 166  
Since 1 June heating degree days 356 464  
Since 1 July heating degree days 136 166  
Cooling Degree Days 0    
Month to date cooling degree days 4  
Year to date cooling degree days 10  
Since 1 June cooling degree days 10  
Growing Degree Days 8 (Base 50)    
Moisture  
Dew Point 56 °F    
Average Humidity 0    
Maximum Humidity 0    
Minimum Humidity 0    
Precipitation  
Precipitation 0.24 in 0.15 in 2.16 in (2015)
Month to date precipitation 3.23 3.55  
Year to date precipitation 46.52 46.85  
Snow  
Snow 0.00 in 0.00 in 9.30 in (1993)
Month to date snowfall 0.0  
Since 1 June snowfall 0.0 0.0  
Since 1 July snowfall 0.0  
Snow Depth 0.00 in    
Sea Level Pressure  
Sea Level Pressure 30.10 in    
Wind  
Wind Speed 6 mph (SE)    
Max Wind Speed 10 mph    
Max Gust Speed 15 mph    
Visibility 5 miles    
Events Fog , Rain    
T = Trace of Precipitation, MM = Missing Value Source: NWS Daily Summary

Daily Weather History Graph

Daily Weather History Graph

Search for Another Location

Airport or City:

Trip Planner

Search our weather history database for the weather conditions in past years. The results will help you decide how hot, cold, wet, or windy it might be!

Date:

Astronomy

Jul. 24, 2013 Rise Set
Actual Time 4:41 AM AKDT 9:02 PM AKDT
Civil Twilight 3:52 AM AKDT 9:51 PM AKDT
Nautical Twilight 2:36 AM AKDT 11:06 PM AKDT
Astronomical Twilight 1:25 AM AKDT 12:20 AM AKDT
Moon 9:29 PM AKDT (7/24) 7:46 AM AKDT (7/24)
Length of Visible Light 17h 58m
Length of Day
16h 20m
Waning Gibbous, 94% of the Moon is Illuminated
Jul 24
Waning Gibbous
Jul 29
Last Quarter
Aug 6
New
Aug 14
First Quarter
Aug 20
Full

Hourly Weather History & Observations

Time (AKDT) Temp. Dew Point Humidity Pressure Visibility Wind Dir Wind Speed Gust Speed Precip Events Conditions
12:40 AM 55.4 °F 55.4 °F 100% 30.09 in 6.0 mi SSE 5.8 mph - N/A   Overcast
12:53 AM 55.9 °F 55.0 °F 97% 30.10 in 7.0 mi SSE 6.9 mph - N/A   Overcast
1:53 AM 55.9 °F 55.0 °F 97% 30.10 in 10.0 mi SE 6.9 mph - 0.03 in   Overcast
2:37 AM 55.4 °F 55.4 °F 100% 30.10 in 2.5 mi SSE 4.6 mph - 0.00 in   Overcast
2:53 AM 55.9 °F 55.9 °F 100% 30.10 in 2.5 mi SE 4.6 mph - 0.01 in   Overcast
3:31 AM 55.4 °F 55.4 °F 100% 30.09 in 1.5 mi SE 8.1 mph - N/A   Overcast
3:53 AM 55.9 °F 55.0 °F 97% 30.09 in 0.8 mi SE 6.9 mph - N/A   Mist
4:48 AM 55.4 °F 55.4 °F 100% 30.08 in 1.0 mi SE 4.6 mph - N/A   Mist
4:53 AM 55.9 °F 55.9 °F 100% 30.09 in 1.2 mi SE 5.8 mph - N/A   Overcast
5:53 AM 55.9 °F 55.9 °F 100% 30.09 in 1.2 mi SE 5.8 mph - 0.01 in   Overcast
6:31 AM 55.4 °F 55.4 °F 100% 30.09 in 0.8 mi SE 5.8 mph - 0.01 in   Mist
6:38 AM 55.4 °F 55.4 °F 100% 30.09 in 1.0 mi SE 5.8 mph - 0.01 in   Mist
6:53 AM 55.9 °F 55.9 °F 100% 30.10 in 1.2 mi SE 5.8 mph - 0.01 in   Overcast
7:06 AM 55.4 °F 55.4 °F 100% 30.09 in 0.5 mi SE 4.6 mph - 0.01 in Fog , Rain Light Rain
7:19 AM 55.4 °F 55.4 °F 100% 30.09 in 1.0 mi SE 5.8 mph - 0.01 in Rain Light Rain
7:40 AM 55.4 °F 55.4 °F 100% 30.09 in 2.0 mi SE 5.8 mph - 0.03 in   Overcast
7:53 AM 55.9 °F 55.9 °F 100% 30.09 in 1.5 mi ESE 5.8 mph - 0.03 in   Overcast
8:10 AM 57.2 °F 57.2 °F 100% 30.09 in 0.5 mi SE 8.1 mph - N/A Fog Fog
8:27 AM 57.2 °F 57.2 °F 100% 30.09 in 2.5 mi SE 5.8 mph - N/A   Overcast
8:34 AM 57.2 °F 57.2 °F 100% 30.09 in 10.0 mi SE 4.6 mph - N/A   Overcast
8:53 AM 57.0 °F 57.0 °F 100% 30.09 in 10.0 mi SE 3.5 mph - N/A   Overcast
9:50 AM 57.2 °F 57.2 °F 100% 30.09 in 1.8 mi SE 4.6 mph - 0.00 in Rain Light Rain
9:53 AM 57.0 °F 57.0 °F 100% 30.09 in 2.0 mi SE 3.5 mph - 0.00 in Rain Light Rain
10:05 AM 57.2 °F 57.2 °F 100% 30.09 in 4.0 mi Calm Calm - 0.01 in   Overcast
10:53 AM 59.0 °F 57.9 °F 96% 30.09 in 10.0 mi SE 5.8 mph - 0.01 in   Overcast
11:36 AM 59.0 °F 57.2 °F 94% 30.09 in 7.0 mi South 4.6 mph - N/A   Overcast
11:53 AM 59.0 °F 57.9 °F 96% 30.10 in 6.0 mi Variable 4.6 mph - N/A   Overcast
12:05 PM 57.2 °F 57.2 °F 100% 30.10 in 2.5 mi South 4.6 mph - 0.00 in Rain Light Rain
12:09 PM 59.0 °F 57.2 °F 94% 30.10 in 1.8 mi SSE 3.5 mph - 0.00 in Rain Light Rain
12:23 PM 57.2 °F 57.2 °F 100% 30.10 in 3.0 mi SSE 5.8 mph - 0.01 in Rain Light Rain
12:29 PM 57.2 °F 57.2 °F 100% 30.10 in 2.0 mi Variable 5.8 mph - 0.01 in Rain Light Rain
12:36 PM 57.2 °F 57.2 °F 100% 30.10 in 1.2 mi SSE 4.6 mph - 0.03 in Rain Heavy Rain
12:53 PM 57.9 °F 57.0 °F 97% 30.10 in 2.0 mi South 3.5 mph - 0.09 in Rain Rain
12:59 PM 57.2 °F 57.2 °F 100% 30.10 in 3.0 mi SSE 3.5 mph - 0.02 in Rain Light Rain
1:08 PM 57.2 °F 57.2 °F 100% 30.10 in 2.0 mi SSE 4.6 mph - 0.02 in Rain Light Rain
1:16 PM 57.2 °F 57.2 °F 100% 30.10 in 1.5 mi SSE 4.6 mph - 0.02 in Rain Light Rain
1:42 PM 57.2 °F 57.2 °F 100% 30.10 in 3.0 mi SSE 6.9 mph - 0.05 in Rain Light Rain
1:53 PM 57.9 °F 57.0 °F 97% 30.11 in 2.5 mi SSE 5.8 mph - 0.05 in   Overcast
2:04 PM 57.2 °F 57.2 °F 100% 30.10 in 5.0 mi SSE 8.1 mph - N/A   Overcast
2:15 PM 57.2 °F 57.2 °F 100% 30.10 in 1.8 mi SSE 8.1 mph - 0.00 in Rain Light Rain
2:21 PM 57.2 °F 57.2 °F 100% 30.10 in 3.0 mi SSE 9.2 mph - 0.00 in   Overcast
2:53 PM 57.9 °F 57.0 °F 97% 30.11 in 10.0 mi SSE 6.9 mph - 0.00 in   Overcast
3:53 PM 57.9 °F 57.0 °F 97% 30.11 in 10.0 mi SSE 8.1 mph - N/A   Overcast
4:53 PM 57.9 °F 57.0 °F 97% 30.11 in 7.0 mi SE 6.9 mph - N/A   Overcast
5:53 PM 57.9 °F 57.0 °F 97% 30.11 in 10.0 mi SSE 5.8 mph - N/A   Mostly Cloudy
6:05 PM 60.8 °F 57.2 °F 88% 30.10 in 10.0 mi SE 9.2 mph - N/A   Mostly Cloudy
7:18 PM 57.2 °F 53.6 °F 88% 30.11 in 10.0 mi SE 5.8 mph - N/A   Overcast
7:53 PM 57.0 °F 54.0 °F 89% 30.12 in 10.0 mi SE 5.8 mph - N/A   Mostly Cloudy
8:53 PM 55.9 °F 53.1 °F 90% 30.13 in 10.0 mi SSE 4.6 mph - N/A   Overcast
9:53 PM 55.9 °F 54.0 °F 93% 30.13 in 10.0 mi SSE 3.5 mph - N/A   Overcast
10:53 PM 55.0 °F 53.1 °F 93% 30.13 in 10.0 mi SE 4.6 mph - N/A   Overcast
11:53 PM 54.0 °F 52.0 °F 93% 30.14 in 10.0 mi SSE 3.5 mph - N/A   Overcast